Regional Weather Roundup
Issued by NWS Kansas City/Pleasant Hill, MO

Home | Current Version | Previous Version | Graphics & Text | Print | Product List | Glossary Off
Versions: 1 2 3 4 5 6 7 8 9 10 11 12 13 14 15 16 17 18 19 20 21 22 23 24 25 26 27 28 29 30 31 32 33 34 35 36 37 38 39 40 41 42 43 44 45 46 47 48 49 50

000
ASUS43 KEAX 020704
RWREAX

WEATHER ROUNDUP FOR EASTERN KANSAS AND NORTHWEST MISSOURI
NATIONAL WEATHER SERVICE KANSAS CITY/PLEASANT HILL MO
100 AM CST MON MAR 02 2015

KSZ040-057-103>105-MOZ028-029-037-043-020800-
...KANSAS CITY METROPOLITAN AREA...

CITY           SKY/WX    TMP DP  RH WIND       PRES   REMARKS
K.C. INTL      CLEAR     25  19  78 SW5       30.50R WCI  19
K.C. DOWNTOWN  CLEAR     25  21  85 CALM      30.52R
LEES SUMMIT    PTCLDY    26  20  77 CALM      30.50S
OLATHE - IXD   PTCLDY    22  17  81 CALM      30.51R
OLATHE - OJC   PTCLDY    23  18  81 CALM      30.49R
LAWRENCE       PTCLDY    19  16  88 CALM      30.52R

$$

MOZ001>008-011>017-020>025-030>033-038>040-044>046-053-054-020800-
...NORTHERN AND CENTRAL MISSOURI...

CITY           SKY/WX    TMP DP  RH WIND       PRES   REMARKS
ST. JOSEPH     PTCLDY    24  22  91 CALM      30.52R
MOSBY          SUNNY     21  19  93 CALM      30.51S
WARRENSBURG    PTCLDY    18  16  93 CALM      30.51S
WHITEMAN AFB   CLEAR     17  15  90 W2        30.50R
CLINTON        MOCLDY    16  14  93 NE3       30.52R FOG
SEDALIA        PTCLDY    18  15  88 CALM      30.51R FOG
WARSAW         NOT AVBL
MARSHALL       PTCLDY    21  21 100 SW3       30.52R
CHILLICOTHE      N/A     24  19  81 CALM      30.52R
MOBERLY        CLOUDY    19  14  79 SW5       30.51R WCI  13
KIRKSVILLE     CLOUDY    21  18  88 CALM      30.49S

$$

MOZ041-047>049-056>058-063>065-088>090-097-020800-
...EASTERN AND SOUTHERN MISSOURI...

CITY           SKY/WX    TMP DP  RH WIND       PRES   REMARKS
ST. LOUIS INTL FAIR      20  15  81 CALM      30.51R
SPIRIT OF STL  CLEAR     13  10  88 CALM      30.52R FOG
COLUMBIA       PTCLDY    20  18  92 NW5       30.50R WCI  13
JEFFERSON CITY PTCLDY    16  13  88 W5        30.53R WCI   9
MEXICO         PTCLDY   N/A N/A N/A W5        30.50R HAZE
HANNIBAL       MOCLDY    23  16  74 W5        30.50R WCI  17
ROLLA          HAZE      13   8  81 N3        30.46R VSB 1/2
LEBANON        PTCLDY    21  19  93 CALM      30.47R
OSAGE BEACH    PTCLDY    18  12  79 CALM      30.49R
SPRINGFIELD    PTCLDY    24  19  81 E5        30.45S WCI  18
NEVADA         PTCLDY    19  19 100 CALM      30.52R
JOPLIN         PTCLDY    23  19  85 NE3       30.49S
WEST PLAINS    PTCLDY    28  21  75 NE8       30.45S WCI  20

$$

IAZ060-094-KSZ022-034>040-054-083-096-NEZ052-066-093-020800-
...KANSAS...SOUTHEAST NEBRASKA AND IOWA...

CITY           SKY/WX    TMP DP  RH WIND       PRES   REMARKS
TOPEKA         CLEAR     22  19  89 CALM      30.52R
MANHATTAN      PTCLDY    23  20  88 CALM      30.50S
EMPORIA        CLEAR     21  18  88 N3        30.48S
CHANUTE        PTCLDY    17  15  92 CALM      30.50R
WICHITA        MOCLDY    17  13  84 NW3       30.48R FOG
OMAHA          CLOUDY    22  17  81 CALM      30.49R
LINCOLN        CLOUDY    24  16  71 CALM      30.50R
FALLS CITY     PTCLDY    26  20  77 CALM      30.49R
LAMONI         MOCLDY    23  17  78 SW7       30.47R WCI  15
DES MOINES     PTCLDY    22  13  68 NW3       30.49R

$$




USA.gov is the U.S. government's official web portal to all federal, state and local government web resources and services.